Location: Unspecified
(0.0000°N, 0.0000°E)
Time: 22:18:22
(UTC+00:00)

Vanguard 3 - Visible Passes

Search period start: 24 June 2016 00:00
Search period end: 04 July 2016 00:00
Orbit: 510 x 3266 km, 33.3° (Epoch: 24 June)

Date Brightness Start Highest point End Pass type
(mag) Time Alt. Az. Time Alt. Az. Time Alt. Az.
24 Jun 9.4 02:33:17 66° ESE 02:33:17 66° ESE 02:43:22 10° ENE visible
24 Jun 9.4 04:37:54 22° W 04:46:16 42° NW 04:54:20 10° NNE visible
24 Jun 11.0 20:24:02 10° SSW 20:32:37 16° S 20:34:00 16° S visible
25 Jun 10.5 01:23:53 29° E 01:23:53 29° E 01:28:56 10° ENE visible
25 Jun 9.1 03:28:29 58° W 03:31:52 72° NW 03:42:01 10° NE visible
25 Jun 10.0 05:37:34 10° W 05:45:04 18° NW 05:50:32 10° N visible
25 Jun 10.8 19:07:32 10° SW 19:14:32 15° S 19:23:13 10° SSE visible
25 Jun 11.1 21:25:43 10° SSW 21:29:06 14° SSW 21:29:06 14° SSW visible
26 Jun 9.5 02:19:01 67° E 02:19:01 67° E 02:28:46 10° ENE visible
26 Jun 9.7 04:23:37 24° W 04:30:59 37° NW 04:39:32 10° NNE visible
26 Jun 11.0 20:10:21 10° SSW 20:18:12 15° S 20:19:37 15° SSE visible
27 Jun 10.5 01:09:31 28° E 01:09:31 28° E 01:14:25 10° ENE visible
27 Jun 9.4 03:14:06 59° WNW 03:16:21 63° NW 03:27:15 10° NE visible
27 Jun 10.3 05:22:57 10° WNW 05:30:07 17° NW 05:35:31 10° N visible
27 Jun 10.8 18:54:49 10° SSW 19:00:12 13° S 19:06:35 10° SSE visible
27 Jun 11.0 21:10:46 10° SSW 21:14:44 15° S 21:14:44 15° S visible
28 Jun 9.6 02:04:32 63° NE 02:04:32 63° NE 02:14:01 10° NE visible
28 Jun 9.9 04:09:07 25° W 04:15:39 33° NW 04:24:40 10° NNE visible
28 Jun 10.9 19:56:27 10° SSW 20:03:45 14° SSE 20:05:16 14° SSE visible
29 Jun 10.6 00:54:55 28° ENE 00:54:55 28° ENE 00:59:43 10° ENE visible
29 Jun 9.6 02:59:29 55° NW 03:00:44 56° NW 03:12:23 10° NE visible
29 Jun 10.5 05:08:30 10° WNW 05:15:10 15° NW 05:20:26 10° N visible
29 Jun 10.8 18:42:36 10° S 18:45:56 11° S 18:49:38 10° SSE visible
29 Jun 10.9 20:55:41 10° SSW 21:00:26 17° S 21:00:26 17° S visible
29 Jun11.423:45:14ENE23:45:14ENE23:05:02SWvisible
30 Jun 9.8 01:49:49 57° NE 01:49:49 57° NE 01:59:08 10° NE visible
30 Jun 10.2 03:54:23 24° WNW 04:00:18 30° NW 04:09:43 10° NNE visible
30 Jun 10.8 19:42:16 10° SSW 19:49:16 14° SSE 19:51:02 14° SSE visible
30 Jun 11.2 21:54:19 10° SSW 21:55:38 13° SSW 21:55:38 13° SSW visible
01 Jul 10.7 00:40:04 27° ENE 00:40:04 27° ENE 00:44:50 10° ENE visible
01 Jul 9.9 02:44:38 50° NW 02:45:03 50° NW 02:57:24 10° NE visible
01 Jul 10.6 04:54:12 10° WNW 05:00:19 14° NW 05:05:18 10° N visible
01 Jul 10.8 20:40:32 10° SSW 20:46:17 19° S 20:46:17 19° S visible
01 Jul11.423:30:15ENE23:30:15ENE22:50:54SWvisible
02 Jul 10.0 01:34:49 52° NNE 01:34:49 52° NNE 01:44:07 10° NE visible
02 Jul 10.4 03:39:22 23° WNW 03:44:58 27° NW 03:54:42 10° NNE visible
02 Jul 10.8 19:27:48 10° S 19:34:43 14° SSE 19:36:59 14° SSE visible
02 Jul 11.0 21:38:46 10° SSW 21:41:36 17° SSW 21:41:36 17° SSW visible
03 Jul 10.8 00:24:56 27° ENE 00:24:56 27° ENE 00:29:46 10° ENE visible
03 Jul 10.1 02:29:29 45° NW 02:29:29 45° NW 02:42:19 10° NNE visible
03 Jul 10.8 04:40:00 10° NW 04:45:32 13° NNW 04:50:11 10° N visible
03 Jul 10.6 20:25:19 10° SSW 20:32:22 22° S 20:32:22 22° S visible
03 Jul11.323:14:58ENE23:14:58ENE22:36:59SWvisible
